Regional Weather Roundup
Issued by NWS

Home | Current Version | Previous Version | Graphics & Text | Print | Product List | Glossary On
Versions: 1 2 3 4 5 6 7 8 9 10 11 12 13 14 15 16 17 18 19 20 21 22 23 24 25 26 27 28 29 30 31 32 33 34 35 36 37 38 39 40 41 42 43 44 45 46 47 48 49 50
000
ASUS45 KABQ 021910
RWRNM
NEW MEXICO REGIONAL WEATHER ROUNDUP
NATIONAL WEATHER SERVICE ALBUQUERQUE NM
100 PM MDT WED SEP 02 2015

NOTE: "FAIR" MEANS FEW OR NO CLOUDS BELOW 12,000 FEET AGL WITH NO
       SIGNIFICANT WEATHER OR OBSTRUCTIONS TO VISION.

      THIS PRODUCT IS RELEASED AS TWO VERSIONS.  ONE VERSION NEAR
      THE TOP OF THE HOUR CONTAINING PRELIMINARY DATA FROM ALBUQUERQUE
      AND OTHER STATIONS.  A FINAL VERSION WITH ADDITIONAL DATA IS
      ISSUED ABOUT 10 MINUTES AFTER THE HOUR.

NMZ501-503-504-510>518-022000-
NORTHWEST PLATEAU/NORTHCENTRAL MOUNTAINS

CITY           SKY/WX    TMP DP  RH WIND       PRES   REMARKS
FARMINGTON     MOSUNNY   83  47  28 S8        30.18F
LOS ALAMOS     PTSUNNY   76  44  31 SE6       30.32F
SANTA FE       PTSUNNY   81  42  25 VRB3      30.24F
TAOS           PTSUNNY   79  43  27 SW5       30.30F
ANGEL FIRE     FAIR      72  44  37 SW12G20   30.39S

$$
NMZ402-403-502-505>509-022000-
WESTCENTRAL MOUNTAINS/SOUTHWEST MOUNTAINS

CITY           SKY/WX    TMP DP  RH WIND       PRES   REMARKS
GALLUP         CLOUDY    78  49  35 W8        30.27F
GRANTS         PTSUNNY   80  49  34 W3        30.29F
SILVER CITY      N/A     84  48  28 NW7       30.22F

$$
NMZ407-409-411-412-022000-
SOUTHERN DESERTS

CITY           SKY/WX    TMP DP  RH WIND       PRES   REMARKS
LORDSBURG      FAIR      86  55  35 NW7       30.12F
DEMING         SUNNY     92  48  22 VRB7      30.11F
LAS CRUCES     MOSUNNY   91  44  19 SW3       30.12F
HOLLOMAN AFB   MOSUNNY   92  44  18 NW7       30.07F
ALAMOGORDO     MOSUNNY   91  45  19 NW5       30.10F
T OR C         MOSUNNY   88  46  23 SW8       30.14F

$$
NMZ519>523-022000-
CENTRAL VALLEYS/CENTRAL HIGHLANDS

CITY           SKY/WX    TMP DP  RH WIND       PRES   REMARKS
ALBUQUERQUE    PTSUNNY   85  48  27 SW5       30.19F
DOUBLE EAGLE   PTSUNNY   84  50  30 VRB6      30.22F
MORIARTY ARPT  MOCLDY    86  43  22 W7        30.25F
CLINES CORNERS MOSUNNY   79  45  29 W13       30.29F
BELEN          FAIR      86  47  26 E7        30.17F
SOCORRO        FAIR      90  47  22 E8        30.15F

$$
NMZ524>526-539-540-022000-
SOUTHCENTRAL MOUNTAINS

CITY           SKY/WX    TMP DP  RH WIND       PRES   REMARKS
RUIDOSO        PTSUNNY   81  41  24 MISG      30.31F

$$
NMZ527>531-022000-
NORTHEAST HIGHLANDS/NORTHEAST PLAINS

CITY           SKY/WX    TMP DP  RH WIND       PRES   REMARKS
LAS VEGAS      PTSUNNY   81  46  29 CALM      30.25F
RATON          MOSUNNY   87  41  19 VRB7      30.17F
CLAYTON        SUNNY     91  49  23 VRB3      30.09F

$$
NMZ532>537-022000-
EASTCENTRAL PLAINS

CITY           SKY/WX    TMP DP  RH WIND       PRES   REMARKS
TUCUMCARI      MOSUNNY   93  52  24 SW16      30.04F
CANNON AFB     MOSUNNY   91  49  24 S14       30.09F
CLOVIS AIRPORT MOSUNNY   93  48  21 S14G23    30.10F

$$
NMZ028-029-538-022000-
SOUTHEAST PLAINS

CITY           SKY/WX    TMP DP  RH WIND       PRES   REMARKS
ROSWELL        SUNNY     94  50  22 SE12G22   30.06F
ARTESIA        SUNNY     91  52  25 SE15G23   30.07F
CARLSBAD       SUNNY     94  50  22 SE10      30.05F
HOBBS          SUNNY     90  52  27 SE14G21   30.11F


$$



USA.gov is the U.S. government's official web portal to all federal, state and local government web resources and services.